Location: Krakow
(50.0212°N, 19.9423°E)
Time: 14:27:47
(UTC+02:00)

NOAA 18 - Pass Details

Date: 06 May 2025
Orbit: 837 x 857 km, 98.8° (Epoch: 14 May)

Event Time Altitude Azimuth Distance (km) Brightness Sun altitude
Exits shadow 21:07:36 - 106° (ESE) 2,640 7.2 -8.9°
Reaches altitude 10° 21:08:06 10° 102° (ESE) 2,493 7.1 -9.0°
Maximum altitude 21:12:07 21° 55° (NE) 1,836 6.8 -9.5°
Drops below altitude 10° 21:16:08 10° 9° (N) 2,501 8.1 -10.0°
Sets 21:19:03 0° 354° (N) 3,439 9.2 -10.3°
